[[{"header":{"parameterUnit":"m.s-1","parameterCategory":1,"la1":30.2991,"la2":30.254,"lo1":-89.0895,"lo2":-89.0444,"dy":0.0017,"dx":0.0017,"nx":28,"ny":28,"refTime":"2023-11-11T03:00:00:Z","depth":0,"parameterNumber":2,"parameterNumberName":"U-component_of_WINDS"},"data":[0,0,0,0,0,0,0,0,0,0,0,0,0,0,0,0,0,0,0,0,0,0,0,0,0,0,0,0,0,0,0,0,0,0,0,0,0,0,0,0,0,0,0,0,0,0,0,0,0,0,0,0,0,0,0,0,0,0,-2.3695,-2.3695,0,-2.3764,-2.3765,-2.3766,-2.3716,-2.3713,-2.3711,-2.3709,-2.3782,-2.3786,-2.379,0,0,0,0,0,0,0,0,0,0,0,0,0,-2.352,-2.3523,-2.3695,-2.3696,-2.3696,-2.3764,-2.3765,-2.3766,-2.3716,-2.3713,-2.3711,-2.3708,-2.3781,-2.3785,-2.379,0,0,0,0,0,0,0,0,0,0,0,0,0,-2.3593,-2.3524,-2.3695,-2.368,-2.3679,-2.3764,-2.3765,-2.3766,-2.3717,-2.3713,-2.371,-2.3707,-2.3779,-2.3785,-2.3791,-2.3895,0,0,-2.3809,-2.3812,0,0,0,0,0,0,0,0,-2.3589,-2.36,-2.3681,-2.3681,-2.368,-2.3728,-2.373,-2.3809,-2.3718,-2.3702,-2.3709,-2.3705,-2.3767,-2.3773,-2.3794,-2.3898,-2.3901,-2.381,-2.3813,-2.3816,-2.3818,0,0,0,0,0,0,0,-2.3584,-2.3596,-2.3722,-2.3682,-2.3682,-2.367,-2.3677,-2.3745,-2.3752,-2.3703,-2.37,-2.3709,-2.3766,-2.3788,-2.3795,-2.3902,-2.3809,-2.3815,-2.3818,-2.3821,-2.4096,-2.41,0,0,0,0,0,0,-2.358,-2.3592,-2.372,-2.3724,-2.3625,-2.3676,-2.3683,-2.3716,-2.3752,-2.3754,-2.3712,-2.3706,-2.378,-2.3788,-2.3798,-2.3923,-2.3816,-2.3821,-2.3825,-2.4092,-2.4097,-2.4101,0,0,0,0,0,0,-2.3577,-2.3592,-2.3717,-2.3657,-2.3672,-2.3682,-2.3719,-2.3719,-2.3741,-2.3758,-2.3759,-2.3733,-2.3777,-2.3789,-2.3871,-2.3925,-2.3824,-2.383,-2.4088,-2.4094,-2.4099,-2.4173,0,0,0,0,0,0,-2.3572,-2.3591,-2.363,-2.3659,-2.3676,-2.3789,-2.3723,-2.3723,-2.3752,-2.3745,-2.3778,-2.378,-2.3776,-2.3862,-2.3877,-2.3931,-2.3834,-2.4083,-2.4091,-2.4097,-2.4166,-2.4181,-2.4193,0,0,0,0,0,-2.3566,-2.3649,-2.3633,-2.3648,-2.3725,-2.3793,-2.3802,-2.3795,-2.3756,-2.3796,-2.3807,-2.3779,-2.3916,-2.3871,-2.3887,-2.3944,-2.408,-2.4089,-2.4097,-2.416,-2.4178,-2.4193,0,0,0,0,0,0,-2.3627,-2.3652,-2.3635,-2.3729,-2.3759,-2.3784,-2.3834,-2.3814,-2.3856,-2.3848,-2.3837,-2.3845,-2.3931,-2.3945,-2.3895,-2.4047,-2.3992,-2.4004,-2.4035,-2.4052,-2.4065,-2.4061,-2.3839,0,0,0,0,0,-2.3651,-2.3703,-2.3723,-2.3804,-2.382,-2.3825,-2.3854,-2.3845,-2.3876,-2.3888,-2.3905,-2.3936,-2.3986,-2.4019,-2.4066,-2.4167,-2.4175,-2.4214,-2.4228,-2.4239,-2.425,-2.4306,-2.4324,-2.4128,-2.4128,-2.4128,0,0,-2.3702,-2.3723,-2.3756,-2.3817,-2.3839,-2.3894,-2.3836,-2.3896,-2.3937,-2.3898,-2.3977,-2.3989,-2.4024,-2.4116,-2.4157,-2.4131,-2.4305,-2.4249,-2.4258,-2.4263,-2.4316,-2.4335,-2.4351,-2.4134,-2.4133,-2.4132,0,0,-2.3824,-2.3844,-2.3915,-2.3938,-2.3972,-2.3975,-2.3992,-2.402,-2.4027,-2.4105,-2.4077,-2.4126,-2.4212,-2.4238,-2.4262,-2.4393,-2.437,-2.4409,-2.448,-2.4535,-2.455,-2.4564,-2.4613,-2.463,-2.4419,-2.4419,-2.442,0,-2.3884,-2.3965,-2.3954,-2.4017,-2.4045,-2.4011,-2.4083,-2.4106,-2.4154,-2.4175,-2.4143,-2.4251,-2.4271,-2.437,-2.4402,-2.4422,-2.4442,-2.4406,-2.4549,-2.4563,-2.4575,-2.4622,-2.464,-2.4424,-2.4424,-2.4423,-2.4423,0,-2.4038,-2.4094,-2.4147,-2.4195,-2.4228,-2.4295,-2.4295,-2.433,-2.4319,-2.4325,-2.4405,-2.4428,-2.448,-2.4502,-2.4491,-2.46,-2.4582,-2.455,-2.4495,-2.4599,-2.4642,-2.466,-2.4431,-2.4429,-2.4428,-2.4427,0,0,-2.4202,-2.4241,-2.4261,-2.4282,-2.4317,-2.4361,-2.4427,-2.4477,-2.4508,-2.4542,-2.4598,-2.4671,-2.4642,-2.4669,-2.4661,-2.4709,-2.4813,-2.4671,-2.4672,-2.4698,-2.4936,-2.4962,-2.4982,-2.4797,-2.4801,-2.4803,-2.4934,0,-2.4327,-2.4441,-2.4433,-2.4541,-2.4594,-2.4562,-2.462,-2.4648,-2.4655,-2.4701,-2.4709,-2.4762,-2.4718,-2.4735,-2.478,-2.4791,-2.4861,-2.4781,-2.4851,-2.4853,-2.4845,-2.5005,-2.5032,-2.5154,-2.4951,-2.4953,-2.4955,0,-2.4488,-2.4528,-2.4642,-2.4669,-2.4691,-2.4743,-2.4788,-2.4832,-2.4864,-2.4865,-2.4896,-2.488,-2.4947,-2.4889,-2.4982,-2.4927,-2.4955,-2.4964,-2.4969,-2.4977,-2.4912,-2.5019,-2.5193,-2.5212,-2.4982,-2.498,-2.4978,0,-2.4599,-2.468,-2.4759,-2.4778,-2.4812,-2.4849,-2.4865,-2.4892,-2.4923,-2.4963,-2.4983,-2.503,-2.5056,-2.5093,-2.509,-2.5047,-2.5185,-2.5126,-2.519,-2.519,-2.5222,-2.522,-2.5405,-2.5236,-2.5236,-2.5235,-2.5235,0,-2.4741,-2.4812,-2.4809,-2.4858,-2.4937,-2.4927,-2.5005,-2.5017,-2.5042,-2.5093,-2.5067,-2.5116,-2.5108,-2.5157,-2.5154,-2.5233,-2.5244,-2.5248,-2.5247,-2.5252,-2.5252,-2.5272,-2.5264,-2.524,-2.5239,-2.5238,-2.5237,0,-2.4879,-2.4879,-2.4964,-2.4988,-2.4996,-2.5054,-2.5075,-2.5122,-2.5126,-2.5191,-2.5205,-2.5213,-2.5269,-2.5269,-2.5332,-2.5331,-2.5428,-2.5416,-2.5417,-2.5416,-2.548,-2.5475,-2.5686,-2.5713,-2.5525,-2.5527,-2.5528,0,-2.497,-2.5024,-2.5055,-2.5087,-2.5105,-2.5157,-2.5188,-2.518,-2.5213,-2.5253,-2.5295,-2.5349,-2.5391,-2.5482,-2.5494,-2.5543,-2.5533,-2.5603,-2.5541,-2.5544,-2.5537,-2.5535,-2.5541,-2.5617,-2.5619,-2.562,-2.5622,0,-2.5133,-2.5131,-2.5177,-2.5223,-2.5261,-2.5297,-2.5331,-2.5358,-2.5353,-2.5393,-2.5449,-2.5482,-2.5548,-2.5602,-2.5649,-2.5665,-2.5644,-2.5641,-2.5659,-2.5665,-2.5665,-2.5668,-2.5453,-2.5637,-2.5636,-2.5634,-2.5634,-2.5633,-2.5252,-2.5299,-2.5329,-2.5381,-2.5405,-2.5436,-2.5482,-2.5491,-2.5539,-2.5591,-2.5583,-2.5647,-2.5677,-2.5738,-2.5758,-2.5809,-2.5784,-2.5809,-2.5816,-2.5823,-2.5831,-2.5655,-2.5817,-2.5817,-2.5816,-2.5816,-2.5815,0,-2.5416,-2.5433,-2.5481,-2.5528,-2.557,-2.5544,-2.5579,-2.5616,-2.5672,-2.5702,-2.5744,-2.581,-2.5862,-2.5877,-2.5928,-2.5965,-2.5957,-2.5979,-2.5978,-2.5982,-2.5849,-2.583,-2.5985,-2.5985,-2.5985,-2.5985,-2.5985,-2.5985,-2.5506,-2.5585,-2.5586,-2.5677,-2.5693,-2.5756,-2.5778,-2.5808,-2.5831,-2.5906,-2.5949,-2.5958,-2.5983,-2.6035,-2.6082,-2.6085,-2.6106,-2.6133,-2.6132,-2.6008,-2.5991,-2.5975,-2.5957,-2.6137,-2.6137,-2.6261,-2.6262,-2.6263]},{"header":{"parameterUnit":"m.s-1","parameterCategory":1,"la1":30.2991,"la2":30.254,"lo1":-89.0895,"lo2":-89.0444,"dy":0.0017,"dx":0.0017,"nx":28,"ny":28,"refTime":"2023-11-11T03:00:00:Z","depth":0,"parameterNumber":3,"parameterNumberName":"V-component_of_WINDS"},"data":[0,0,0,0,0,0,0,0,0,0,0,0,0,0,0,0,0,0,0,0,0,0,0,0,0,0,0,0,0,0,0,0,0,0,0,0,0,0,0,0,0,0,0,0,0,0,0,0,0,0,0,0,0,0,0,0,0,0,-2.8325,-2.8325,0,-2.8346,-2.8346,-2.8346,-2.8331,-2.833,-2.833,-2.8329,-2.8348,-2.8349,-2.8351,0,0,0,0,0,0,0,0,0,0,0,0,0,-2.8269,-2.827,-2.8325,-2.8325,-2.8325,-2.8346,-2.8346,-2.8346,-2.8331,-2.833,-2.8329,-2.8329,-2.8348,-2.8349,-2.8351,0,0,0,0,0,0,0,0,0,0,0,0,0,-2.8292,-2.827,-2.8325,-2.832,-2.832,-2.8346,-2.8346,-2.8346,-2.8331,-2.833,-2.8329,-2.8328,-2.8348,-2.8349,-2.8351,-2.8381,0,0,-2.8356,-2.8357,0,0,0,0,0,0,0,0,-2.8291,-2.8294,-2.8321,-2.8321,-2.832,-2.8335,-2.8333,-2.8358,-2.8331,-2.8327,-2.8329,-2.8328,-2.8344,-2.8346,-2.8352,-2.8382,-2.8383,-2.8356,-2.8357,-2.8358,-2.8358,0,0,0,0,0,0,0,-2.8289,-2.8293,-2.8333,-2.8321,-2.8321,-2.8316,-2.8318,-2.8338,-2.8341,-2.8327,-2.8326,-2.8329,-2.8344,-2.8351,-2.8353,-2.8383,-2.8356,-2.8358,-2.8359,-2.8359,-2.8439,-2.844,0,0,0,0,0,0,-2.8288,-2.8292,-2.8332,-2.8334,-2.8303,-2.8318,-2.8321,-2.8331,-2.8341,-2.8341,-2.833,-2.8328,-2.8348,-2.8351,-2.8353,-2.839,-2.8358,-2.836,-2.8361,-2.8438,-2.8439,-2.844,0,0,0,0,0,0,-2.8287,-2.8292,-2.8331,-2.8312,-2.8317,-2.832,-2.8332,-2.8332,-2.8339,-2.8343,-2.8343,-2.8336,-2.8348,-2.8351,-2.8375,-2.839,-2.836,-2.8362,-2.8436,-2.8438,-2.844,-2.8463,0,0,0,0,0,0,-2.8285,-2.8292,-2.8304,-2.8313,-2.8318,-2.8353,-2.8333,-2.8333,-2.8342,-2.834,-2.8349,-2.8349,-2.8347,-2.8372,-2.8376,-2.8392,-2.8363,-2.8435,-2.8437,-2.8439,-2.8461,-2.8465,-2.8469,0,0,0,0,0,-2.8284,-2.8309,-2.8305,-2.831,-2.8334,-2.8354,-2.8357,-2.8355,-2.8343,-2.8355,-2.8358,-2.8349,-2.8388,-2.8375,-2.8379,-2.8396,-2.8434,-2.8437,-2.8439,-2.8459,-2.8464,-2.8469,0,0,0,0,0,0,-2.8301,-2.831,-2.8305,-2.8335,-2.8344,-2.8351,-2.8367,-2.836,-2.8372,-2.837,-2.8366,-2.8368,-2.8393,-2.8396,-2.8382,-2.8425,-2.8409,-2.8412,-2.8422,-2.8428,-2.8432,-2.843,-2.8365,0,0,0,0,0,-2.8309,-2.8325,-2.8332,-2.8357,-2.8362,-2.8363,-2.8372,-2.837,-2.8379,-2.8382,-2.8387,-2.8395,-2.8409,-2.8418,-2.8431,-2.8461,-2.8462,-2.8474,-2.8478,-2.8482,-2.8485,-2.85,-2.8506,-2.8448,-2.8448,-2.8448,0,0,-2.8324,-2.8331,-2.8342,-2.8361,-2.8368,-2.8384,-2.8367,-2.8385,-2.8397,-2.8385,-2.8408,-2.8411,-2.842,-2.8447,-2.8459,-2.845,-2.8501,-2.8485,-2.8487,-2.8489,-2.8503,-2.8509,-2.8514,-2.845,-2.845,-2.8449,0,0,-2.836,-2.8368,-2.8389,-2.8397,-2.8407,-2.8408,-2.8413,-2.8422,-2.8424,-2.8447,-2.8438,-2.8452,-2.8476,-2.8483,-2.849,-2.8528,-2.8521,-2.8532,-2.8554,-2.8569,-2.8574,-2.8578,-2.8591,-2.8596,-2.8535,-2.8536,-2.8536,0,-2.8378,-2.8404,-2.8401,-2.842,-2.8429,-2.8419,-2.8441,-2.8447,-2.8461,-2.8467,-2.8458,-2.8488,-2.8494,-2.8522,-2.8531,-2.8537,-2.8542,-2.8532,-2.8573,-2.8577,-2.8581,-2.8594,-2.8599,-2.8537,-2.8537,-2.8537,-2.8536,0,-2.8425,-2.8442,-2.8458,-2.8473,-2.8483,-2.8504,-2.8504,-2.8514,-2.851,-2.8512,-2.8535,-2.8541,-2.8555,-2.8562,-2.8558,-2.8589,-2.8584,-2.8574,-2.8557,-2.8588,-2.86,-2.8605,-2.8539,-2.8538,-2.8538,-2.8538,0,0,-2.8473,-2.8487,-2.8493,-2.8499,-2.851,-2.8523,-2.8542,-2.8557,-2.8566,-2.8576,-2.8592,-2.8612,-2.8603,-2.8611,-2.8608,-2.8621,-2.8652,-2.861,-2.861,-2.8617,-2.8686,-2.8694,-2.87,-2.8646,-2.8647,-2.8648,-2.8685,0,-2.8511,-2.8546,-2.8544,-2.8576,-2.8592,-2.8583,-2.86,-2.8608,-2.8609,-2.8623,-2.8624,-2.8639,-2.8626,-2.863,-2.8643,-2.8645,-2.8665,-2.8642,-2.8661,-2.8661,-2.8659,-2.8706,-2.8714,-2.8749,-2.869,-2.8691,-2.8692,0,-2.8559,-2.8572,-2.8606,-2.8614,-2.8621,-2.8636,-2.8649,-2.8662,-2.8671,-2.8671,-2.8679,-2.8674,-2.8693,-2.8675,-2.8701,-2.8686,-2.8693,-2.8695,-2.8696,-2.8698,-2.8679,-2.871,-2.8761,-2.8766,-2.8699,-2.8698,-2.8698,0,-2.8592,-2.8617,-2.8641,-2.8646,-2.8657,-2.8668,-2.8672,-2.868,-2.8689,-2.87,-2.8705,-2.8718,-2.8725,-2.8735,-2.8732,-2.872,-2.8759,-2.8741,-2.8759,-2.8759,-2.8768,-2.8768,-2.8821,-2.8772,-2.8772,-2.8772,-2.8772,0,-2.8634,-2.8656,-2.8655,-2.867,-2.8693,-2.869,-2.8713,-2.8717,-2.8723,-2.8738,-2.873,-2.8744,-2.874,-2.8753,-2.8751,-2.8773,-2.8776,-2.8776,-2.8776,-2.8777,-2.8777,-2.8782,-2.878,-2.8773,-2.8773,-2.8773,-2.8772,0,-2.8675,-2.8676,-2.8701,-2.8709,-2.8711,-2.8728,-2.8734,-2.8747,-2.8748,-2.8767,-2.8771,-2.8772,-2.8787,-2.8786,-2.8803,-2.8802,-2.8828,-2.8825,-2.8826,-2.8825,-2.8843,-2.8842,-2.8902,-2.891,-2.8856,-2.8856,-2.8857,0,-2.8702,-2.8718,-2.8728,-2.8737,-2.8743,-2.8758,-2.8767,-2.8765,-2.8774,-2.8785,-2.8797,-2.8812,-2.8823,-2.8848,-2.885,-2.8862,-2.8859,-2.8879,-2.8861,-2.8862,-2.886,-2.8859,-2.886,-2.8883,-2.8884,-2.8884,-2.8885,0,-2.875,-2.875,-2.8764,-2.8778,-2.8789,-2.8799,-2.8809,-2.8817,-2.8815,-2.8826,-2.8842,-2.8851,-2.8868,-2.8883,-2.8895,-2.8898,-2.8891,-2.889,-2.8895,-2.8897,-2.8898,-2.8898,-2.8836,-2.8889,-2.8889,-2.8888,-2.8888,-2.8888,-2.8785,-2.8799,-2.8808,-2.8824,-2.8831,-2.884,-2.8853,-2.8856,-2.8869,-2.8884,-2.8881,-2.8898,-2.8906,-2.8921,-2.8926,-2.894,-2.8932,-2.8939,-2.8941,-2.8943,-2.8945,-2.8895,-2.8942,-2.8942,-2.8941,-2.8941,-2.8941,0,-2.8833,-2.8839,-2.8853,-2.8867,-2.8879,-2.8871,-2.8882,-2.8892,-2.8908,-2.8916,-2.8927,-2.8945,-2.8959,-2.8962,-2.8975,-2.8985,-2.8982,-2.8989,-2.8988,-2.8989,-2.8951,-2.8946,-2.8991,-2.8991,-2.8991,-2.8991,-2.8991,-2.8991,-2.886,-2.8883,-2.8884,-2.891,-2.8915,-2.8933,-2.8939,-2.8948,-2.8954,-2.8975,-2.8986,-2.8988,-2.8994,-2.9007,-2.9019,-2.902,-2.9025,-2.9033,-2.9032,-2.8997,-2.8992,-2.8987,-2.8982,-2.9034,-2.9034,-2.9069,-2.907,-2.907]}]]